00:00:03,83A37EE0,0,0,19503,5,0,144
00:00:11,83A37FE0,0,0,19503,6,1,144
00:00:19,83A380E0,0,0,19503,6,1,145
00:00:27,83A381E0,0,0,19503,6,1,145
00:00:35,83A382E0,0,0,19503,6,1,145
00:00:43,83A383E0,0,0,19504,5,0,145
00:00:51,83A384E0,0,0,19504,5,0,145
00:00:59,83A385E0,0,0,19504,5,0,145
00:01:07,83A386E0,0,0,19504,5,0,145
00:01:15,83A387E0,0,0,19503,5,0,145
00:01:23,83A388E0,0,0,19503,5,0,146
00:01:31,83A389E0,0,0,19503,5,0,146
00:01:39,83A38AE0,0,0,19503,5,0,146
00:01:47,83A38BE0,0,0,19502,6,0,146
00:01:55,83A38CE0,0,0,19502,6,0,145
00:02:03,83A38DE0,0,0,19502,6,0,145
00:02:11,83A38EE0,0,0,19502,6,0,145
00:02:19,83A38FE0,0,0,19505,6,0,145
00:02:27,83A390E0,0,0,19505,6,0,144
00:02:35,83A391E0,0,0,19505,6,0,144
00:02:43,83A392E0,0,0,19505,6,0,143
00:02:51,83A393E0,0,0,19505,8,0,143
00:02:59,83A394E0,0,0,19505,8,0,143
00:03:07,83A395E0,0,0,19505,8,0,142
00:03:15,83A396E0,0,0,19505,8,0,142
00:03:23,83A397E0,0,0,19506,5,0,142
00:03:31,83A398E0,0,0,19506,5,0,142
00:03:39,83A399E0,0,0,19506,5,0,141
00:03:47,83A39AE0,0,0,19506,5,0,141
00:03:55,83A39BE0,0,0,19506,8,0,141
00:04:03,83A39CE0,0,0,19506,8,0,141
00:04:11,83A39DE0,0,0,19506,8,0,141
00:04:19,83A39EE0,0,0,19506,8,0,141
00:04:27,83A39FE0,0,0,19504,8,0,141
00:04:35,83A3A0E0,0,0,19504,8,0,142
00:04:43,83A3A1E0,0,0,19504,8,0,142
00:04:51,83A3A2E0,0,0,19504,8,0,142
00:04:59,83A3A3E0,0,0,19504,6,0,142
00:05:07,83A3A4E0,0,0,19504,6,0,143
00:05:15,83A3A5E0,0,0,19504,6,0,143
00:05:23,83A3A6E0,0,0,19504,6,0,143
00:05:31,83A3A7E0,0,0,19506,3,0,143
00:05:39,83A3A8E0,0,0,19506,3,0,143
00:05:47,83A3A9E0,0,0,19506,3,0,143
00:05:55,83A3AAE0,0,0,19506,3,0,144
00:06:03,83A3ABE0,0,0,19506,4,0,144
00:06:11,83A3ACE0,0,0,19506,4,0,144
00:06:19,83A3ADE0,0,0,19506,4,0,144
00:06:27,83A3AEE0,0,0,19506,4,0,144
00:06:35,83A3AFE0,0,0,19504,4,0,145
00:06:43,83A3B0E0,0,0,19504,4,0,145
00:06:51,83A3B1E0,0,0,19504,4,0,145
00:06:59,83A3B2E0,0,0,19504,4,0,145
00:07:07,83A3B3E0,0,0,19507,4,0,145
00:07:15,83A3B4E0,0,0,19507,4,0,145
00:07:23,83A3B5E0,0,0,19507,4,0,145
00:07:31,83A3B6E0,0,0,19507,4,0,145
00:07:39,83A3B7E0,0,0,19507,3,0,146
00:07:47,83A3B8E0,0,0,19507,3,0,146
00:07:55,83A3B9E0,0,0,19507,3,0,146
00:08:03,83A3BAE0,0,0,19507,3,0,145
00:08:11,83A3BBE0,0,0,19508,5,0,145
00:08:19,83A3BCE0,0,0,19508,5,0,145
00:08:27,83A3BDE0,0,0,19508,5,0,145
00:08:35,83A3BEE0,0,0,19508,5,0,144
00:08:43,83A3BFE0,0,0,19508,3,0,144
00:08:51,83A3C0E0,0,0,19508,3,0,144
00:08:59,83A3C1E0,0,0,19508,3,0,143
00:09:07,83A3C2E0,0,0,19508,3,0,143
00:09:15,83A3C3E0,0,0,19510,4,0,143
00:09:23,83A3C4E0,0,0,19510,4,0,142
00:09:31,83A3C5E0,0,0,19510,4,0,142
00:09:39,83A3C6E0,0,0,19510,4,0,142
00:09:47,83A3C7E0,0,0,19510,4,0,141
00:09:55,83A3C8E0,0,0,19510,4,0,141
00:10:03,83A3C9E0,0,0,19510,4,0,141
00:10:11,83A3CAE0,0,0,19510,4,0,141
00:10:19,83A3CBE0,0,0,19511,3,0,141
00:10:27,83A3CCE0,0,0,19511,3,0,141
00:10:35,83A3CDE0,0,0,19511,3,0,141
00:10:43,83A3CEE0,0,0,19511,3,0,141
00:10:51,83A3CFE0,0,0,19509,5,0,142
00:10:59,83A3D0E0,0,0,19509,5,0,142
00:11:07,83A3D1E0,0,0,19509,5,0,142
00:11:15,83A3D2E0,0,0,19509,5,0,142
00:11:23,83A3D3E0,0,0,19512,2,0,143
00:11:31,83A3D4E0,0,0,19512,2,0,143
00:11:39,83A3D5E0,0,0,19512,2,0,143
00:11:47,83A3D6E0,0,0,19512,2,0,143
00:11:55,83A3D7E0,0,0,19508,5,0,143
00:12:03,83A3D8E0,0,0,19508,5,0,144
00:12:11,83A3D9E0,0,0,19508,5,0,144
00:12:19,83A3DAE0,0,0,19508,5,0,144
00:12:27,83A3DBE0,0,0,19511,3,0,144
00:12:35,83A3DCE0,0,0,19511,3,0,144
00:12:43,83A3DDE0,0,0,19511,3,0,145
00:12:51,83A3DEE0,0,0,19511,3,0,145
00:12:59,83A3DFE0,0,0,19510,4,0,145
00:13:07,83A3E0E0,0,0,19510,4,0,145
00:13:15,83A3E1E0,0,0,19510,4,0,145
00:13:23,83A3E2E0,0,0,19510,4,0,145
00:13:31,83A3E3E0,0,0,19508,6,0,145
00:13:39,83A3E4E0,0,0,19508,6,0,145
00:13:47,83A3E5E0,0,0,19508,6,0,146
00:13:55,83A3E6E0,0,0,19508,6,0,146
00:14:03,83A3E7E0,0,0,19509,4,0,146
00:14:11,83A3E8E0,0,0,19509,4,0,146
00:14:19,83A3E9E0,0,0,19509,4,0,145
00:14:27,83A3EAE0,0,0,19509,4,0,145
00:14:35,83A3EBE0,0,0,19508,4,0,145
00:14:43,83A3ECE0,0,0,19508,4,0,144
00:14:51,83A3EDE0,0,0,19508,4,0,144
00:14:59,83A3EEE0,0,0,19508,4,0,144
00:15:07,83A3EFE0,0,0,19508,6,1,144
00:15:15,83A3F0E0,0,0,19508,6,1,143
00:15:23,83A3F1E0,0,0,19508,6,1,143
00:15:31,83A3F2E0,0,0,19508,6,1,143
00:15:39,83A3F3E0,0,0,19508,3,0,142
00:15:47,83A3F4E0,0,0,19508,3,0,142
00:15:55,83A3F5E0,0,0,19508,3,0,142
00:16:03,83A3F6E0,0,0,19508,3,0,141
00:16:11,83A3F7E0,0,0,19510,3,0,141
00:16:19,83A3F8E0,0,0,19510,3,0,141
00:16:27,83A3F9E0,0,0,19510,3,0,141
00:16:35,83A3FAE0,0,0,19510,3,0,141
00:16:43,83A3FBE0,0,0,19510,6,1,141
00:16:51,83A3FCE0,0,0,19510,6,1,141
00:16:59,83A3FDE0,0,0,19510,6,1,142
00:17:07,83A3FEE0,0,0,19510,6,1,142
00:17:15,83A3FFE0,0,0,19510,3,0,142
00:17:23,83A400E0,0,0,19510,3,0,142
00:17:31,83A401E0,0,0,19510,3,0,143
00:17:39,83A402E0,0,0,19510,3,0,143
00:17:47,83A403E0,0,0,19510,3,0,143
00:17:55,83A404E0,0,0,19510,3,0,143
00:18:03,83A405E0,0,0,19510,3,0,143
00:18:11,83A406E0,0,0,19510,3,0,143
00:18:19,83A407E0,0,0,19509,5,0,144
00:18:27,83A408E0,0,0,19509,5,0,144
00:18:35,83A409E0,0,0,19509,5,0,144
00:18:43,83A40AE0,0,0,19509,5,0,144
00:18:51,83A40BE0,0,0,19510,5,0,144
00:18:59,83A40CE0,0,0,19510,5,0,145
00:19:07,83A40DE0,0,0,19510,5,0,145
00:19:15,83A40EE0,0,0,19510,5,0,145
00:19:23,83A40FE0,0,0,19510,5,0,145
00:19:31,83A410E0,0,0,19510,5,0,145
00:19:39,83A411E0,0,0,19510,5,0,145
00:19:47,83A412E0,0,0,19510,5,0,146
00:19:55,83A413E0,0,0,19507,6,0,146
00:20:03,83A414E0,0,0,19507,6,0,146
00:20:11,83A415E0,0,0,19507,6,0,146
00:20:19,83A416E0,0,0,19507,6,0,146
00:20:27,83A417E0,0,0,19510,4,0,145
00:20:35,83A418E0,0,0,19510,4,0,145
00:20:43,83A419E0,0,0,19510,4,0,145
00:20:51,83A41AE0,0,0,19510,4,0,144
00:20:59,83A41BE0,0,0,19510,5,0,144
00:21:07,83A41CE0,0,0,19510,5,0,144
00:21:15,83A41DE0,0,0,19510,5,0,144
00:21:23,83A41EE0,0,0,19510,5,0,143
00:21:31,83A41FE0,0,0,19509,5,0,143
00:21:39,83A420E0,0,0,19509,5,0,143
00:21:47,83A421E0,0,0,19509,5,0,142
00:21:55,83A422E0,0,0,19509,5,0,142
00:22:03,83A423E0,0,0,19511,6,0,142
00:22:11,83A424E0,0,0,19511,6,0,142
00:22:19,83A425E0,0,0,19511,6,0,141
00:22:27,83A426E0,0,0,19511,6,0,141
00:22:35,83A427E0,0,0,19512,4,0,141
00:22:43,83A428E0,0,0,19512,4,0,141
00:22:51,83A429E0,0,0,19512,4,0,141
00:22:59,83A42AE0,0,0,19512,4,0,141
00:23:07,83A42BE0,0,0,19511,8,0,141
00:23:15,83A42CE0,0,0,19511,8,0,142
00:23:23,83A42DE0,0,0,19511,8,0,142
00:23:31,83A42EE0,0,0,19511,8,0,142
00:23:39,83A42FE0,0,0,19513,4,0,143
00:23:47,83A430E0,0,0,19513,4,0,143
00:23:55,83A431E0,0,0,19513,4,0,143
00:24:03,83A432E0,0,0,19513,4,0,143
00:24:11,83A433E0,0,0,19508,8,0,143
00:24:19,83A434E0,0,0,19508,8,0,143
00:24:27,83A435E0,0,0,19508,8,0,144
00:24:35,83A436E0,0,0,19508,8,0,144
00:24:43,83A437E0,0,0,19509,5,0,144
00:24:51,83A438E0,0,0,19509,5,0,144
00:24:59,83A439E0,0,0,19509,5,0,144
00:25:07,83A43AE0,0,0,19509,5,0,144
00:25:15,83A43BE0,0,0,19510,6,0,145
00:25:23,83A43CE0,0,0,19510,6,0,145
00:25:31,83A43DE0,0,0,19510,6,0,145
00:25:39,83A43EE0,0,0,19510,6,0,145
00:25:47,83A43FE0,0,0,19509,6,0,145
00:25:55,83A440E0,0,0,19509,6,0,146
00:26:03,83A441E0,0,0,19509,6,0,146
00:26:11,83A442E0,0,0,19509,6,0,146
00:26:19,83A443E0,0,0,19509,5,0,146
00:26:27,83A444E0,0,0,19509,5,0,146
00:26:35,83A445E0,0,0,19509,5,0,146
00:26:43,83A446E0,0,0,19509,5,0,145
00:26:51,83A447E0,0,0,19507,4,1,145
00:26:59,83A448E0,0,0,19507,4,1,145
00:27:07,83A449E0,0,0,19507,4,1,144
00:27:15,83A44AE0,0,0,19507,4,1,144
00:27:23,83A44BE0,0,0,19506,5,0,143
00:27:31,83A44CE0,0,0,19506,5,0,143
00:27:39,83A44DE0,0,0,19506,5,0,143
00:27:47,83A44EE0,0,0,19506,5,0,143
00:27:55,83A44FE0,0,0,19507,5,0,142
00:28:03,83A450E0,0,0,19507,5,0,142
00:28:11,83A451E0,0,0,19507,5,0,142
00:28:19,83A452E0,0,0,19507,5,0,142
00:28:27,83A453E0,0,0,19506,7,0,141
00:28:35,83A454E0,0,0,19506,7,0,141
00:28:43,83A455E0,0,0,19506,7,0,141
00:28:51,83A456E0,0,0,19506,7,0,141
00:28:59,83A457E0,0,0,19506,5,0,141
00:29:07,83A458E0,0,0,19506,5,0,141
00:29:15,83A459E0,0,0,19506,5,0,141
00:29:23,83A45AE0,0,0,19506,5,0,141
00:29:31,83A45BE0,0,0,19506,8,0,142
00:29:39,83A45CE0,0,0,19506,8,0,142
00:29:47,83A45DE0,0,0,19506,8,0,142
00:29:55,83A45EE0,0,0,19506,8,0,143
00:30:03,83A45FE0,0,0,19507,15,0,143
00:30:11,83A460E0,0,0,19507,15,0,143
00:30:19,83A461E0,0,0,19507,15,0,143
00:30:27,83A462E0,0,0,19507,15,0,144
00:30:35,83A463E0,0,0,19506,16,0,144
00:30:43,83A464E0,0,0,19506,16,0,144
00:30:51,83A465E0,0,0,19506,16,0,144
00:30:59,83A466E0,0,0,19506,16,0,144
00:31:07,83A467E0,0,0,5616,0,0,144
00:31:15,83A468E0,0,0,5616,0,0,144
00:31:23,83A469E0,0,0,5616,0,0,145
00:31:31,83A46AE0,0,0,5616,0,0,145
00:31:39,83A46BE0,0,0,19506,7,0,145
00:31:47,83A46CE0,0,0,19506,7,0,145
00:31:55,83A46DE0,0,0,19506,7,0,145
00:32:03,83A46EE0,0,0,19506,7,0,145
00:32:11,83A46FE0,0,0,19507,6,0,146
00:32:19,83A470E0,0,0,19507,6,0,146
00:32:27,83A471E0,0,0,19507,6,0,146
00:32:35,83A472E0,0,0,19507,6,0,146
00:32:43,83A473E0,0,0,19507,7,0,146
00:32:51,83A474E0,0,0,19507,7,0,146
00:32:59,83A475E0,0,0,19507,7,0,145
00:33:07,83A476E0,0,0,19507,7,0,145
00:33:15,83A477E0,0,0,19507,7,0,144
00:33:23,83A478E0,0,0,19507,7,0,144
00:33:31,83A479E0,0,0,19507,7,0,144
00:33:39,83A47AE0,0,0,19507,7,0,143
00:33:47,83A47BE0,0,0,19508,8,0,143
00:33:55,83A47CE0,0,0,19508,8,0,143
00:34:03,83A47DE0,0,0,19508,8,0,143
00:34:11,83A47EE0,0,0,19508,8,0,142
00:34:19,83A47FE0,0,0,19506,5,0,142
00:34:27,83A480E0,0,0,19506,5,0,142
00:34:35,83A481E0,0,0,19506,5,0,142
00:34:43,83A482E0,0,0,19506,5,0,141
00:34:51,83A483E0,0,0,19509,6,0,141
00:34:59,83A484E0,0,0,19509,6,0,141
00:35:07,83A485E0,0,0,19509,6,0,141
00:35:15,83A486E0,0,0,19509,6,0,141
00:35:23,83A487E0,0,0,19510,5,0,141
00:35:31,83A488E0,0,0,19510,5,0,141
00:35:39,83A489E0,0,0,19510,5,0,142
00:35:47,83A48AE0,0,0,19510,5,0,142
00:35:55,83A48BE0,0,0,19508,6,0,142
00:36:03,83A48CE0,0,0,19508,6,0,142
00:36:11,83A48DE0,0,0,19508,6,0,143
00:36:19,83A48EE0,0,0,19508,6,0,143
00:36:27,83A48FE0,0,0,19509,5,0,143
00:36:35,83A490E0,0,0,19509,5,0,143
00:36:43,83A491E0,0,0,19509,5,0,144
00:36:51,83A492E0,0,0,19509,5,0,144
00:36:59,83A493E0,0,0,19510,6,0,144
00:37:07,83A494E0,0,0,19510,6,0,144
00:37:15,83A495E0,0,0,19510,6,0,144
00:37:23,83A496E0,0,0,19510,6,0,144
00:37:31,83A497E0,0,0,19511,6,0,144
00:37:39,83A498E0,0,0,19511,6,0,145
00:37:47,83A499E0,0,0,19511,6,0,145
00:37:55,83A49AE0,0,0,19511,6,0,145
00:38:03,83A49BE0,0,0,19509,7,0,145
00:38:11,83A49CE0,0,0,19509,7,0,145
00:38:19,83A49DE0,0,0,19509,7,0,145
00:38:27,83A49EE0,0,0,19509,7,0,146
00:38:35,83A49FE0,0,0,19511,6,0,146
00:38:43,83A4A0E0,0,0,19511,6,0,146
00:38:51,83A4A1E0,0,0,19511,6,0,146
00:38:59,83A4A2E0,0,0,19511,6,0,146
00:39:07,83A4A3E0,0,0,19512,6,0,145
00:39:15,83A4A4E0,0,0,19512,6,0,145
00:39:23,83A4A5E0,0,0,19512,6,0,145
00:39:31,83A4A6E0,0,0,19512,6,0,144
00:39:39,83A4A7E0,0,0,19512,4,0,144
00:39:47,83A4A8E0,0,0,19512,4,0,144
00:39:55,83A4A9E0,0,0,19512,4,0,143
00:40:03,83A4AAE0,0,0,19512,4,0,143
00:40:11,83A4ABE0,0,0,19512,4,0,143
00:40:19,83A4ACE0,0,0,19512,4,0,142
00:40:27,83A4ADE0,0,0,19512,4,0,142
00:40:35,83A4AEE0,0,0,19512,4,0,142
00:40:43,83A4AFE0,0,0,19512,7,0,142
00:40:51,83A4B0E0,0,0,19512,7,0,141
00:40:59,83A4B1E0,0,0,19512,7,0,141
00:41:07,83A4B2E0,0,0,19512,7,0,141
00:41:15,83A4B3E0,0,0,19513,5,0,141
00:41:23,83A4B4E0,0,0,19513,5,0,141
00:41:31,83A4B5E0,0,0,19513,5,0,141
00:41:39,83A4B6E0,0,0,19513,5,0,141
00:41:47,83A4B7E0,0,0,19517,1,0,142
00:41:55,83A4B8E0,0,0,19517,1,0,142
00:42:03,83A4B9E0,0,0,19517,1,0,142
00:42:11,83A4BAE0,0,0,19517,1,0,142
00:42:19,83A4BBE0,0,0,19513,4,0,142
00:42:27,83A4BCE0,0,0,19513,4,0,143
00:42:35,83A4BDE0,0,0,19513,4,0,143
00:42:43,83A4BEE0,0,0,19513,4,0,143
00:42:51,83A4BFE0,0,0,19512,5,0,144
00:42:59,83A4C0E0,0,0,19512,5,0,144
00:43:07,83A4C1E0,0,0,19512,5,0,144
00:43:15,83A4C2E0,0,0,19512,5,0,144
00:43:23,83A4C3E0,0,0,19511,4,1,144
00:43:31,83A4C4E0,0,0,19511,4,1,144
00:43:39,83A4C5E0,0,0,19511,4,1,145
00:43:47,83A4C6E0,0,0,19511,4,1,145
00:43:55,83A4C7E0,0,0,19515,3,0,145
00:44:03,83A4C8E0,0,0,19515,3,0,145
00:44:11,83A4C9E0,0,0,19515,3,0,145
00:44:19,83A4CAE0,0,0,19515,3,0,145
00:44:27,83A4CBE0,0,0,19513,4,0,145
00:44:35,83A4CCE0,0,0,19513,4,0,145
00:44:43,83A4CDE0,0,0,19513,4,0,146
00:44:51,83A4CEE0,0,0,19513,4,0,146
00:44:59,83A4CFE0,0,0,19509,7,0,146
00:45:07,83A4D0E0,0,0,19509,7,0,146
00:45:15,83A4D1E0,0,0,19509,7,0,146
00:45:23,83A4D2E0,0,0,19509,7,0,145
00:45:31,83A4D3E0,0,0,19509,3,0,145
00:45:39,83A4D4E0,0,0,19509,3,0,145
00:45:47,83A4D5E0,0,0,19509,3,0,144
00:45:55,83A4D6E0,0,0,19509,3,0,144
00:46:03,83A4D7E0,0,0,19508,4,0,143
00:46:11,83A4D8E0,0,0,19508,4,0,143
00:46:19,83A4D9E0,0,0,19508,4,0,143
00:46:27,83A4DAE0,0,0,19508,4,0,142
00:46:35,83A4DBE0,0,0,19509,5,0,142
00:46:43,83A4DCE0,0,0,19509,5,0,142
00:46:51,83A4DDE0,0,0,19509,5,0,142
00:46:59,83A4DEE0,0,0,19509,5,0,142
00:47:07,83A4DFE0,0,0,19510,4,0,141
00:47:15,83A4E0E0,0,0,19510,4,0,141
00:47:23,83A4E1E0,0,0,19510,4,0,141
00:47:31,83A4E2E0,0,0,19510,4,0,141
00:47:39,83A4E3E0,0,0,19509,5,0,141
00:47:47,83A4E4E0,0,0,19509,5,0,141
00:47:55,83A4E5E0,0,0,19509,5,0,142
00:48:03,83A4E6E0,0,0,19509,5,0,142
00:48:11,83A4E7E0,0,0,19510,6,0,142
00:48:19,83A4E8E0,0,0,19510,6,0,142
00:48:27,83A4E9E0,0,0,19510,6,0,142
00:48:35,83A4EAE0,0,0,19510,6,0,143
00:48:43,83A4EBE0,0,0,19510,8,0,143
00:48:51,83A4ECE0,0,0,19510,8,0,143
00:48:59,83A4EDE0,0,0,19510,8,0,143
00:49:07,83A4EEE0,0,0,19510,8,0,144
00:49:15,83A4EFE0,0,0,19510,8,0,144
00:49:23,83A4F0E0,0,0,19510,8,0,144
00:49:31,83A4F1E0,0,0,19510,8,0,144
00:49:39,83A4F2E0,0,0,19510,8,0,144
00:49:47,83A4F3E0,0,0,19511,6,0,145
00:49:55,83A4F4E0,0,0,19511,6,0,145
00:50:03,83A4F5E0,0,0,19511,6,0,145
00:50:11,83A4F6E0,0,0,19511,6,0,145
00:50:19,83A4F7E0,0,0,19510,8,0,145
00:50:27,83A4F8E0,0,0,19510,8,0,145
00:50:35,83A4F9E0,0,0,19510,8,0,145
00:50:43,83A4FAE0,0,0,19510,8,0,145
00:50:51,83A4FBE0,0,0,19508,8,0,145
00:50:59,83A4FCE0,0,0,19508,8,0,146
00:51:07,83A4FDE0,0,0,19508,8,0,146
00:51:15,83A4FEE0,0,0,19508,8,0,146
00:51:23,83A4FFE0,0,0,19507,7,0,146
00:51:31,83A500E0,0,0,19507,7,0,145
00:51:39,83A501E0,0,0,19507,7,0,145
00:51:47,83A502E0,0,0,19507,7,0,145
00:51:55,83A503E0,0,0,19509,5,0,144
00:52:03,83A504E0,0,0,19509,5,0,144
00:52:11,83A505E0,0,0,19509,5,0,144
00:52:19,83A506E0,0,0,19509,5,0,143
00:52:27,83A507E0,0,0,19508,8,0,143
00:52:35,83A508E0,0,0,19508,8,0,143
00:52:43,83A509E0,0,0,19508,8,0,142
00:52:51,83A50AE0,0,0,19508,8,0,142
00:52:59,83A50BE0,0,0,19507,5,0,142
00:53:07,83A50CE0,0,0,19507,5,0,141
00:53:15,83A50DE0,0,0,19507,5,0,141
00:53:23,83A50EE0,0,0,19507,5,0,141
00:53:31,83A50FE0,0,0,19508,4,0,141
00:53:39,83A510E0,0,0,19508,4,0,141
00:53:47,83A511E0,0,0,19508,4,0,141
00:53:55,83A512E0,0,0,19508,4,0,141
00:54:03,83A513E0,0,0,19507,5,1,141
00:54:11,83A514E0,0,0,19507,5,1,142
00:54:19,83A515E0,0,0,19507,5,1,142
00:54:27,83A516E0,0,0,19507,5,1,142
00:54:35,83A517E0,0,0,19507,4,0,142
00:54:43,83A518E0,0,0,19507,4,0,143
00:54:51,83A519E0,0,0,19507,4,0,143
00:54:59,83A51AE0,0,0,19507,4,0,143
00:55:07,83A51BE0,0,0,19507,4,0,143
00:55:15,83A51CE0,0,0,19507,4,0,143
00:55:23,83A51DE0,0,0,19507,4,0,143
00:55:31,83A51EE0,0,0,19507,4,0,144
00:55:39,83A51FE0,0,0,19508,4,0,144
00:55:47,83A520E0,0,0,19508,4,0,144
00:55:55,83A521E0,0,0,19508,4,0,144
00:56:03,83A522E0,0,0,19508,4,0,145
00:56:11,83A523E0,0,0,19507,5,0,145
00:56:19,83A524E0,0,0,19507,5,0,145
00:56:27,83A525E0,0,0,19507,5,0,145
00:56:35,83A526E0,0,0,19507,5,0,145
00:56:43,83A527E0,0,0,19507,5,0,145
00:56:51,83A528E0,0,0,19507,5,0,145
00:56:59,83A529E0,0,0,19507,5,0,145
00:57:07,83A52AE0,0,0,19507,5,0,146
00:57:15,83A52BE0,0,0,19507,5,0,146
00:57:23,83A52CE0,0,0,19507,5,0,146
00:57:31,83A52DE0,0,0,19507,5,0,146
00:57:39,83A52EE0,0,0,19507,5,0,145
00:57:47,83A52FE0,0,0,19507,5,0,145
00:57:55,83A530E0,0,0,19507,5,0,145
00:58:03,83A531E0,0,0,19507,5,0,145
00:58:11,83A532E0,0,0,19507,5,0,144
00:58:19,83A533E0,0,0,19506,4,0,144
00:58:27,83A534E0,0,0,19506,4,0,144
00:58:35,83A535E0,0,0,19506,4,0,143
00:58:43,83A536E0,0,0,19506,4,0,143
00:58:51,83A537E0,0,0,19505,7,0,143
00:58:59,83A538E0,0,0,19505,7,0,142
00:59:07,83A539E0,0,0,19505,7,0,142
00:59:15,83A53AE0,0,0,19505,7,0,142
00:59:23,83A53BE0,0,0,19503,5,0,141
00:59:31,83A53CE0,0,0,19503,5,0,141
00:59:39,83A53DE0,0,0,19503,5,0,141
00:59:47,83A53EE0,0,0,19503,5,0,141
00:59:55,83A53FE0,0,0,19504,3,0,141
01:00:03,83A540E0,0,0,19504,3,0,141
01:00:11,83A541E0,0,0,19504,3,0,141
01:00:19,83A542E0,0,0,19504,3,0,142
01:00:27,83A543E0,0,0,19505,6,1,142
01:00:35,83A544E0,0,0,19505,6,1,142
01:00:43,83A545E0,0,0,19505,6,1,142
01:00:51,83A546E0,0,0,19505,6,1,143
01:00:59,83A547E0,0,0,19504,5,0,143
01:01:07,83A548E0,0,0,19504,5,0,143
01:01:15,83A549E0,0,0,19504,5,0,143
01:01:23,83A54AE0,0,0,19504,5,0,143
01:01:31,83A54BE0,0,0,19504,5,0,143
01:01:39,83A54CE0,0,0,19504,5,0,144
01:01:47,83A54DE0,0,0,19504,5,0,144
01:01:55,83A54EE0,0,0,19504,5,0,144
01:02:03,83A54FE0,0,0,19506,4,0,144
01:02:11,83A550E0,0,0,19506,4,0,144
01:02:19,83A551E0,0,0,19506,4,0,145
01:02:27,83A552E0,0,0,19506,4,0,145
01:02:35,83A553E0,0,0,19505,7,0,145
01:02:43,83A554E0,0,0,19505,7,0,145
01:02:51,83A555E0,0,0,19505,7,0,145
01:02:59,83A556E0,0,0,19505,7,0,145
01:03:07,83A557E0,0,0,19505,6,0,145
01:03:15,83A558E0,0,0,19505,6,0,146
01:03:23,83A559E0,0,0,19505,6,0,146
01:03:31,83A55AE0,0,0,19505,6,0,146
01:03:39,83A55BE0,0,0,19505,8,0,146
01:03:47,83A55CE0,0,0,19505,8,0,145
01:03:55,83A55DE0,0,0,19505,8,0,145
01:04:03,83A55EE0,0,0,19505,8,0,145
01:04:11,83A55FE0,0,0,19505,6,0,145
01:04:19,83A560E0,0,0,19505,6,0,144
01:04:27,83A561E0,0,0,19505,6,0,144
01:04:35,83A562E0,0,0,19505,6,0,144
01:04:43,83A563E0,0,0,19506,4,0,143
01:04:51,83A564E0,0,0,19506,4,0,143
01:04:59,83A565E0,0,0,19506,4,0,143
01:05:07,83A566E0,0,0,19506,4,0,143
01:05:15,83A567E0,0,0,19604,4,0,142
01:05:23,83A568E0,0,0,19604,4,0,142
01:05:39,83A56AE0,0,0,19604,4,0,141
01:05:47,83A56BE0,0,0,48,0,0,141
01:05:55,83A56CE0,0,0,48,0,0,141
01:06:11,83A56EE0,0,0,48,0,0,141
01:06:19,83A56FE0,0,0,49,0,0,141
01:06:27,83A570E0,0,0,49,0,0,141
01:06:35,83A571E0,0,0,49,0,0,142
01:06:43,83A572E0,0,0,49,0,0,142
01:06:51,83A573E0,0,0,19583,4,0,142
01:06:59,83A574E0,0,0,19583,4,0,142
01:07:07,83A575E0,0,0,19583,4,0,143
01:07:15,83A576E0,0,0,19583,4,0,143
01:07:23,83A577E0,0,0,19517,6,0,143
01:07:31,83A578E0,0,0,19517,6,0,143
01:07:39,83A579E0,0,0,19517,6,0,143
01:07:47,83A57AE0,0,0,19517,6,0,144
01:07:55,83A57BE0,0,0,19521,4,0,144
01:08:03,83A57CE0,0,0,19521,4,0,144
01:08:11,83A57DE0,0,0,19521,4,0,144
01:08:19,83A57EE0,0,0,19521,4,0,144
01:08:27,83A57FE0,0,0,19525,5,0,144
01:08:35,83A580E0,0,0,19525,5,0,145
01:08:43,83A581E0,0,0,19525,5,0,145
01:08:51,83A582E0,0,0,19525,5,0,145
01:08:59,83A583E0,0,0,19528,16,0,145
01:09:07,83A584E0,0,0,19528,16,0,145
01:09:15,83A585E0,0,0,19528,16,0,145
01:09:23,83A586E0,0,0,19528,16,0,146
01:09:31,83A587E0,0,0,19531,7,0,146
01:09:39,83A588E0,0,0,19531,7,0,146
01:09:47,83A589E0,0,0,19531,7,0,146
01:09:55,83A58AE0,0,0,19531,7,0,146
01:10:03,83A58BE0,0,0,19534,3,0,145
01:10:11,83A58CE0,0,0,19534,3,0,145
01:10:19,83A58DE0,0,0,19534,3,0,145
01:10:27,83A58EE0,0,0,19534,3,0,144
01:10:35,83A58FE0,0,0,19536,5,0,144
01:10:43,83A590E0,0,0,19536,5,0,144
01:10:51,83A591E0,0,0,19536,5,0,143
01:10:59,83A592E0,0,0,19536,5,0,143
01:11:07,83A593E0,0,0,19537,6,0,143
01:11:15,83A594E0,0,0,19537,6,0,143
01:11:23,83A595E0,0,0,19537,6,0,142
01:11:31,83A596E0,0,0,19537,6,0,142
01:11:39,83A597E0,0,0,19540,4,0,142
01:11:47,83A598E0,0,0,19540,4,0,141
01:11:55,83A599E0,0,0,19540,4,0,141
01:12:03,83A59AE0,0,0,19540,4,0,141
01:12:11,83A59BE0,0,0,19543,7,0,141
01:12:19,83A59CE0,0,0,19543,7,0,141
01:12:27,83A59DE0,0,0,19543,7,0,141
01:12:35,83A59EE0,0,0,19543,7,0,141
01:12:43,83A59FE0,0,0,19546,6,0,141
01:12:51,83A5A0E0,0,0,19546,6,0,142
01:12:59,83A5A1E0,0,0,19546,6,0,142
01:13:07,83A5A2E0,0,0,19546,6,0,142
01:13:15,83A5A3E0,0,0,19549,6,0,143
01:13:23,83A5A4E0,0,0,19549,6,0,143
01:13:31,83A5A5E0,0,0,19549,6,0,143
01:13:39,83A5A6E0,0,0,19549,6,0,143
01:13:47,83A5A7E0,0,0,19551,6,0,143
01:13:55,83A5A8E0,0,0,19551,6,0,144
01:14:03,83A5A9E0,0,0,19551,6,0,144
01:14:11,83A5AAE0,0,0,19551,6,0,144
01:14:19,83A5ABE0,0,0,19555,2,0,144
01:14:27,83A5ACE0,0,0,19555,2,0,144
01:14:35,83A5ADE0,0,0,19555,2,0,144
01:14:43,83A5AEE0,0,0,19555,2,0,144
01:14:51,83A5AFE0,0,0,19556,6,0,145
01:14:59,83A5B0E0,0,0,19556,6,0,145
01:15:07,83A5B1E0,0,0,19556,6,0,145
01:15:15,83A5B2E0,0,0,19556,6,0,145
01:15:23,83A5B3E0,0,0,19561,6,1,145
01:15:31,83A5B4E0,0,0,19561,6,1,146
01:15:39,83A5B5E0,0,0,19561,6,1,146
01:15:47,83A5B6E0,0,0,19561,6,1,146
01:15:55,83A5B7E0,0,0,19562,7,0,146
01:16:03,83A5B8E0,0,0,19562,7,0,146
01:16:11,83A5B9E0,0,0,19562,7,0,145
01:16:19,83A5BAE0,0,0,19562,7,0,145
01:16:27,83A5BBE0,0,0,19563,5,0,145
01:16:35,83A5BCE0,0,0,19563,5,0,144
01:16:43,83A5BDE0,0,0,19563,5,0,144
01:16:51,83A5BEE0,0,0,19563,5,0,144
01:16:59,83A5BFE0,0,0,19569,5,0,143
01:17:07,83A5C0E0,0,0,19569,5,0,143
01:17:15,83A5C1E0,0,0,19569,5,0,143
01:17:23,83A5C2E0,0,0,19569,5,0,143
01:17:31,83A5C3E0,0,0,19571,5,0,142
01:17:39,83A5C4E0,0,0,19571,5,0,142
01:17:47,83A5C5E0,0,0,19571,5,0,142
01:17:55,83A5C6E0,0,0,19571,5,0,142
01:18:03,83A5C7E0,0,0,19572,5,0,141
01:18:11,83A5C8E0,0,0,19572,5,0,141
01:18:19,83A5C9E0,0,0,19572,5,0,141
01:18:27,83A5CAE0,0,0,19572,5,0,141
01:18:35,83A5CBE0,0,0,19575,7,0,141
01:18:43,83A5CCE0,0,0,19575,7,0,141
01:18:51,83A5CDE0,0,0,19575,7,0,141
01:18:59,83A5CEE0,0,0,19575,7,0,142
01:19:07,83A5CFE0,0,0,19578,4,0,142
01:19:15,83A5D0E0,0,0,19578,4,0,142
01:19:23,83A5D1E0,0,0,19578,4,0,142
01:19:31,83A5D2E0,0,0,19578,4,0,143
01:19:39,83A5D3E0,0,0,19580,3,0,143
01:19:47,83A5D4E0,0,0,19580,3,0,143
01:19:55,83A5D5E0,0,0,19580,3,0,143
01:20:03,83A5D6E0,0,0,19580,3,0,144
01:20:11,83A5D7E0,0,0,19584,5,0,144
01:20:19,83A5D8E0,0,0,19584,5,0,144
01:20:27,83A5D9E0,0,0,19584,5,0,144
01:20:35,83A5DAE0,0,0,19584,5,0,144
01:20:43,83A5DBE0,0,0,19589,3,0,144
01:20:51,83A5DCE0,0,0,19589,3,0,145
01:20:59,83A5DDE0,0,0,19589,3,0,145
01:21:07,83A5DEE0,0,0,19589,3,0,145
01:21:15,83A5DFE0,0,0,19588,2,0,145
01:21:23,83A5E0E0,0,0,19588,2,0,145
01:21:31,83A5E1E0,0,0,19588,2,0,145
01:21:39,83A5E2E0,0,0,19588,2,0,146
01:21:47,83A5E3E0,0,0,19592,2,0,146
01:21:55,83A5E4E0,0,0,19592,2,0,146
01:22:03,83A5E5E0,0,0,19592,2,0,146
01:22:11,83A5E6E0,0,0,19592,2,0,146
01:22:19,83A5E7E0,0,0,19593,4,0,146
01:22:27,83A5E8E0,0,0,19593,4,0,145
01:22:35,83A5E9E0,0,0,19593,4,0,145
01:22:43,83A5EAE0,0,0,19593,4,0,145
01:22:51,83A5EBE0,0,0,19597,4,0,144
01:22:59,83A5ECE0,0,0,19597,4,0,144
01:23:07,83A5EDE0,0,0,19597,4,0,143
01:23:15,83A5EEE0,0,0,19597,4,0,143
01:23:23,83A5EFE0,0,0,19600,3,0,143
01:23:31,83A5F0E0,0,0,19600,3,0,143
01:23:39,83A5F1E0,0,0,19600,3,0,142
01:23:47,83A5F2E0,0,0,19600,3,0,142
01:23:55,83A5F3E0,0,0,19602,3,0,142
01:24:03,83A5F4E0,0,0,19602,3,0,142
01:24:11,83A5F5E0,0,0,19602,3,0,141
01:24:19,83A5F6E0,0,0,19602,3,0,141
01:24:27,83A5F7E0,0,0,19605,3,0,141
01:24:35,83A5F8E0,0,0,19605,3,0,141
01:24:43,83A5F9E0,0,0,19605,3,0,141
01:24:51,83A5FAE0,0,0,19605,3,0,141
01:24:59,83A5FBE0,0,0,19609,3,0,141
01:25:07,83A5FCE0,0,0,19609,3,0,142
01:25:15,83A5FDE0,0,0,19609,3,0,142
01:25:23,83A5FEE0,0,0,19609,3,0,142
01:25:31,83A5FFE0,0,0,19612,2,0,142
01:25:39,83A600E0,0,0,19612,2,0,143
01:25:47,83A601E0,0,0,19612,2,0,143
01:25:55,83A602E0,0,0,19612,2,0,143
01:26:03,83A603E0,0,0,19611,3,0,143
01:26:11,83A604E0,0,0,19611,3,0,144
01:26:19,83A605E0,0,0,19611,3,0,144
01:26:27,83A606E0,0,0,19611,3,0,144
01:26:35,83A607E0,0,0,19615,3,0,144
01:26:43,83A608E0,0,0,19615,3,0,144